Location: Unspecified
(49.2170°N, 0.0000°E)
Time: 19:36:04
(UTC+00:00)

Transit 4A - Pass Details

Date: 17 June 2019
Orbit: 862 x 982 km, 66.8° (Epoch: 18 July)

Event Time Altitude Azimuth Distance (km) Brightness Sun altitude
Rises 11:47:35 0° 265° (W) 3,651 11.0 64.0°
Reaches altitude 10° 11:50:39 10° 278° (W) 2,720 10.4 64.1°
Maximum altitude 11:55:46 25° 332° (NNW) 1,882 9.6 64.1°
Drops below altitude 10° 12:00:58 10° 26° (NNE) 2,747 10.2 64.2°
Sets 12:04:05 0° 40° (NE) 3,694 10.8 64.2°
